Back to catalog

CHINASAT 5A

CHINASTAR1

AliveCommunicationsGEO
NORAD 25354·PAYLOAD·🇨🇳 China

Launched May 30, 1998 from Xichang Satellite Launch Center

Loading…

TLE

FreshSource: Space-Track

Epoch: Sep 14, 2026, 10:03 UTC

1 25354U 98033A   26257.41921113 -.00000143  00000-0  00000-0 0  9995
2 25354   9.1717  59.9679 0008140 156.8200 220.4721  0.98992819 46829

Track CHINASAT 5A in real time with AllMySat

Download on the App Store